Location: Cosy Dell
(34.2789°N, 117.4537°W)
Time: 21:13:45
(UTC+00:00)

Cosmos 1975 Rocket - Pass Details

Date: 14 July 2020
Orbit: 605 x 633 km, 82.5° (Epoch: 13 August)

Event Time Altitude Azimuth Distance (km) Brightness Sun altitude
Rises 11:41:38 0° 350° (N) 2,908 6.9 -12.6°
Reaches altitude 10° 11:43:52 10° 347° (NNW) 2,002 6.0 -12.2°
Maximum altitude 11:48:16 66° 266° (W) 686 3.1 -11.5°
Drops below altitude 10° 11:52:40 10° 184° (S) 2,002 5.3 -10.7°
Sets 11:54:55 0° 181° (S) 2,907 6.2 -10.4°
